Ash Shahamah, UAE

10:01 PM +04 on May 28, 2017 (GMT +0400)
Ash Shahamah

Weather History for 41217 - August, 2013

Change the Weather History Date:

Thursday, August 1, 2013

  Actual Average Record
Temperature  
Mean Temperature 92 °F -  
Max Temperature 100 °F 107 °F - ()
Min Temperature 83 °F 84 °F - ()
Cooling Degree Days 26    
Growing Degree Days 42 (Base 50)    
Moisture  
Dew Point 74 °F    
Average Humidity 53    
Maximum Humidity 71    
Minimum Humidity 31    
Precipitation  
Precipitation 0.00 in 0.00 in - ()
Sea Level Pressure  
Sea Level Pressure 29.40 in    
Wind  
Wind Speed 9 mph ()    
Max Wind Speed 20 mph    
Max Gust Speed -    
Visibility 5.6 miles    
Events      
T = Trace of Precipitation, MM = Missing Value Source: Averaged Metar Reports

Daily Weather History Graph

Daily Weather History Graph

Search for Another Location

Airport or City:

Trip Planner

Search our weather history database for the weather conditions in past years. The results will help you decide how hot, cold, wet, or windy it might be!

Date:

Astronomy

Aug. 01, 2013 Rise Set
Actual Time 5:49 AM +04 7:05 PM +04
Civil Twilight 5:25 AM +04 7:29 PM +04
Nautical Twilight 4:56 AM +04 7:58 PM +04
Astronomical Twilight 4:26 AM +04 8:28 PM +04
Moon 1:11 AM +04 (8/1) 2:50 PM +04 (8/1)
Length of Visible Light 14h 04m
Length of Day
13h 15m
Waning Crescent, 26% of the Moon is Illuminated
Aug 1
Waning Crescent
Aug 7
New
Aug 14
First Quarter
Aug 21
Full
Aug 28
Last Quarter

Hourly Weather History & Observations

Time (+04) Temp. Heat Index Dew Point Humidity Pressure Visibility Wind Dir Wind Speed Gust Speed Precip Events Conditions
12:00 AM 91.4 °F 102.5 °F 75.2 °F 59% 29.42 in - WNW 9.2 mph - N/A   Clear
1:00 AM 91 °F - 74 °F 50% 29.39 in 6 mi West 9.2 mph - -   Partly Cloudy
1:00 AM 91.4 °F 102.5 °F 75.2 °F 59% 29.39 in - West 9.2 mph - N/A   Clear
2:00 AM 91.4 °F 102.5 °F 75.2 °F 59% 29.39 in - West 4.6 mph - N/A   Clear
3:00 AM 87.8 °F 97.6 °F 75.2 °F 66% 29.39 in - SSW 4.6 mph - N/A   Clear
4:00 AM 86 °F - 74 °F 60% 29.39 in 6 mi SSW 5.8 mph - -  
4:00 AM 86.0 °F 93.4 °F 73.4 °F 66% 29.39 in - SSW 5.8 mph - N/A   Clear
5:00 AM 86.0 °F 93.4 °F 73.4 °F 66% 29.39 in - South 5.8 mph - N/A   Clear
6:00 AM 84.2 °F 90.9 °F 73.4 °F 70% 29.42 in - SSW 5.8 mph - N/A   Clear
7:00 AM 84 °F - 72 °F 59% 29.42 in 6 mi SSW 6.9 mph - -  
7:00 AM 84.2 °F 89.6 °F 71.6 °F 66% 29.42 in - SSW 6.9 mph - N/A   Clear
8:00 AM 87.8 °F 93.8 °F 71.6 °F 58% 29.42 in - SSW 6.9 mph - N/A   Clear
9:00 AM 93.2 °F 105.0 °F 75.2 °F 56% 29.42 in - West 6.9 mph - N/A   Clear
10:00 AM 96 °F - 69 °F 31% 29.44 in 5 mi NW 12.7 mph - -   Widespread Dust
10:00 AM 96.8 °F 101.8 °F 68.0 °F 39% 29.44 in 5.0 mi NW 12.7 mph - N/A   Unknown
11:00 AM 100.4 °F 107.8 °F 69.8 °F 37% 29.42 in 5.0 mi WNW 17.3 mph - N/A   Unknown
12:00 PM 100.4 °F 104.9 °F 66.2 °F 33% 29.39 in 5.0 mi West 19.6 mph - N/A   Unknown
1:00 PM 99 °F - 73 °F 34% 29.41 in 6 mi WNW 16.1 mph - -   Widespread Dust
1:00 PM 98.6 °F 109.2 °F 73.4 °F 44% 29.42 in 5.6 mi WNW 16.1 mph - N/A   Unknown
2:00 PM 98.6 °F 107.7 °F 71.6 °F 42% 29.39 in 5.6 mi WNW 18.4 mph - N/A   Unknown
3:00 PM 98.6 °F 107.7 °F 71.6 °F 42% 29.36 in - West 17.3 mph - N/A   Clear
4:00 PM 98.6 °F 104.1 °F 68.0 °F 37% 29.36 in - WNW 18.4 mph - N/A   Clear
5:00 PM 96.8 °F 107.3 °F 73.4 °F 47% 29.36 in - WNW 16.1 mph - N/A   Clear
6:00 PM 96.8 °F 107.3 °F 73.4 °F 47% 29.36 in - WNW 13.8 mph - N/A   Clear
7:00 PM 94 °F - 76 °F 46% 29.37 in 6 mi West 11.5 mph - -   Clear
7:00 PM 95.0 °F 107.4 °F 75.2 °F 53% 29.36 in - West 11.5 mph - N/A   Clear
8:00 PM 93.2 °F 107.2 °F 77.0 °F 59% 29.39 in - WNW 11.5 mph - N/A   Clear
9:00 PM 91.4 °F 107.2 °F 78.8 °F 66% 29.39 in - WNW 11.5 mph - N/A   Clear
10:00 PM 91.4 °F 111.0 °F 80.6 °F 71% 29.42 in - WNW 10.4 mph - N/A   Clear
11:00 PM 91.4 °F 111.0 °F 80.6 °F 71% 29.42 in - WNW 9.2 mph - N/A   Clear